1534737600.93,27828,21.13,74568.0,5.03,-15.75,-16.23,0,*7C
1534737602.13,27829,21.13,74570.5,5.07,-15.67,-16.03,0,*78
1534737603.33,27830,21.19,74572.5,5.07,-15.67,-16.03,0,*70
1534737604.56,27831,21.13,74570.0,5.03,-15.71,-16.09,0,*78
1534737605.79,27832,21.13,74570.5,5.03,-15.71,-16.09,0,*7B
1534737607.03,27833,21.13,74568.5,5.03,-15.81,-16.23,0,*7D
1534737608.29,27834,21.13,74570.3,5.01,-15.75,-16.09,0,*7B
1534737609.52,27835,21.13,74570.5,5.03,-15.75,-16.17,0,*77
1534737610.78,27836,21.13,74564.0,5.01,-15.71,-16.09,0,*7D
1534737612.01,27837,21.13,74570.3,5.03,-15.71,-16.17,0,*71
1534737613.26,27838,21.13,74564.8,5.01,-15.71,-16.09,0,*73
1534737614.51,27839,21.13,74568.0,5.01,-15.71,-16.17,0,*7D
1534737615.74,27840,21.13,74568.8,5.03,-15.71,-16.09,0,*7E
1534737617.0,27841,21.13,74568.0,5.01,-15.75,-16.17,0,*76
1534737618.23,27842,21.13,74566.8,5.03,-15.71,-16.09,0,*7C
1534737619.46,27843,21.19,74570.0,5.03,-15.71,-16.09,0,*7D
1534737620.66,27844,21.13,74570.0,5.03,-15.71,-15.95,0,*7C
1534737621.92,27845,21.13,74568.0,5.01,-15.75,-16.17,0,*72
1534737623.12,27846,21.19,74568.5,5.03,-15.63,-15.95,0,*7D
1534737624.32,27847,21.19,74570.5,5.03,-15.63,-16.03,0,*70
1534737625.55,27848,21.13,74564.5,5.03,-15.71,-16.17,0,*79
1534737626.78,27849,21.13,74570.3,5.03,-15.75,-16.17,0,*7C
1534737628.04,27850,21.19,74570.0,5.01,-15.75,-16.09,0,*79
1534737629.27,27851,21.13,74570.8,5.03,-15.71,-16.17,0,*71
1534737630.52,27852,21.19,74570.8,5.03,-15.89,-16.31,0,*71
1534737631.79,27853,21.19,74568.0,5.01,-15.81,-16.31,0,*7A
1534737633.02,27854,21.13,74566.5,5.03,-15.75,-16.17,0,*70
1534737634.25,27855,21.19,74572.3,5.03,-15.71,-16.09,0,*7A
1534737635.5,27856,21.13,74570.5,5.01,-15.49,-15.81,0,*73
1534737636.75,27857,21.19,74572.0,5.03,-15.57,-15.89,0,*77
1534737637.95,27858,21.13,74566.3,5.03,-15.71,-16.03,0,*7D
1534737639.18,27859,21.19,74570.0,5.03,-15.71,-16.09,0,*76
1534737640.41,27860,21.13,74568.8,5.03,-15.71,-16.17,0,*73
1534737641.61,27861,21.19,74568.8,5.03,-15.63,-15.95,0,*78
1534737642.84,27862,21.13,74564.8,5.01,-15.63,-16.03,0,*75
1534737644.04,27863,21.13,74564.8,5.03,-15.63,-15.95,0,*7A
1534737645.24,27864,21.13,74564.0,5.03,-15.71,-16.03,0,*72
1534737646.47,27865,21.19,74568.3,5.03,-15.75,-16.17,0,*72
1534737647.67,27866,21.13,74566.3,5.07,-15.67,-16.03,0,*73
1534737648.87,27867,21.13,74564.8,5.07,-15.67,-16.03,0,*72
1534737650.07,27868,21.13,74566.3,5.07,-15.67,-16.03,0,*7D
1534737651.3,27869,21.19,74568.0,5.07,-15.71,-16.13,0,*7A
1534737652.49,27870,21.19,74570.3,5.07,-15.67,-16.03,0,*74
1534737653.72,27871,21.19,74566.3,5.01,-15.63,-15.95,0,*7B
1534737654.92,27872,21.19,74570.3,5.03,-15.63,-16.03,0,*76
1534737656.15,27873,21.19,74570.5,5.07,-15.75,-16.17,0,*71
1534737657.38,27874,21.13,74566.8,5.07,-15.53,-15.89,0,*76
1534737658.6,27875,21.19,74566.5,5.07,-15.57,-15.99,0,*72
1534737659.83,27876,21.19,74566.5,5.03,-15.75,-16.17,0,*70
1534737661.06,27877,21.19,74564.8,5.07,-15.71,-16.27,0,*72
1534737662.28,27878,21.13,74568.8,5.07,-15.67,-16.13,0,*7D
1534737663.52,27879,21.19,74568.5,5.07,-15.75,-16.17,0,*7B
1534737664.74,27880,21.19,74568.0,5.07,-15.75,-16.13,0,*79
1534737665.97,27881,21.19,74564.5,5.07,-15.71,-16.13,0,*7C
1534737667.19,27882,21.13,74564.0,5.07,-15.67,-16.13,0,*78
1534737668.42,27883,21.19,74566.5,5.03,-15.63,-16.09,0,*72
1534737669.66,27884,21.13,74566.3,5.03,-15.63,-16.09,0,*75
1534737670.9,27885,21.13,74564.8,5.03,-15.81,-16.23,0,*70
1534737672.13,27886,21.13,74566.3,5.07,-15.75,-16.27,0,*78
1534737673.33,27887,21.13,74566.3,5.07,-15.53,-15.99,0,*7B
1534737674.55,27888,21.19,74568.5,5.07,-15.57,-16.03,0,*70
1534737675.78,27889,21.19,74566.8,5.07,-15.67,-16.13,0,*73
1534737676.98,27890,21.19,74570.5,5.07,-15.67,-16.03,0,*7A
1534737678.2,27891,21.19,74568.5,5.07,-15.75,-16.27,0,*7E
1534737679.46,27892,21.19,74568.3,5.07,-15.85,-16.27,0,*72
1534737680.69,27893,21.19,74568.5,5.07,-15.75,-16.17,0,*7F
1534737681.92,27894,21.19,74570.8,5.03,-15.71,-16.09,0,*77
1534737683.12,27895,21.13,74566.8,5.03,-15.71,-16.03,0,*7C
1534737684.34,27896,21.19,74568.5,5.03,-15.71,-16.23,0,*7D
1534737685.6,27897,21.19,74568.3,5.01,-15.75,-16.09,0,*72
1534737686.82,27898,21.19,74570.8,5.03,-15.75,-16.31,0,*74
1534737688.05,27899,21.19,74566.5,5.03,-15.71,-16.09,0,*7A
1534737689.3,27900,21.19,74568.5,5.03,-15.81,-16.31,0,*7F
1534737690.55,27901,21.19,74568.0,5.03,-15.81,-16.23,0,*7D
1534737691.78,27902,21.19,74564.0,5.03,-15.75,-16.17,0,*72
1534737693.01,27903,21.19,74566.5,5.03,-15.75,-16.17,0,*73
1534737694.24,27904,21.19,74568.5,5.03,-15.71,-16.09,0,*7F
1534737695.47,27905,21.19,74570.3,5.03,-15.71,-16.09,0,*7E
1534737696.7,27906,21.13,74566.3,5.03,-15.71,-16.09,0,*7D
1534737697.93,27907,21.19,74566.8,5.03,-15.71,-16.17,0,*73
1534737699.18,27908,21.13,74564.3,5.03,-15.81,-16.31,0,*77
1534737700.41,27909,21.19,74564.8,5.03,-15.71,-16.09,0,*72
1534737701.64,27910,21.19,74568.3,5.03,-15.71,-16.09,0,*7A
1534737702.87,27911,21.19,74570.5,5.03,-15.71,-16.17,0,*74
1534737704.07,27912,21.19,74564.8,5.03,-15.63,-16.03,0,*71
1534737705.27,27913,21.19,74568.0,5.03,-15.49,-15.75,0,*7A
1534737706.47,27914,21.19,74570.3,5.03,-15.71,-16.03,0,*74
1534737707.7,27915,21.19,74568.8,5.03,-15.75,-16.17,0,*74
1534737708.9,27916,21.19,74568.8,5.07,-15.67,-16.03,0,*75
1534737710.13,27917,21.19,74566.8,5.07,-15.75,-16.27,0,*71
1534737711.36,27918,21.19,74566.0,5.03,-15.71,-16.17,0,*7D
1534737712.61,27919,21.19,74566.0,5.03,-15.81,-16.23,0,*74
1534737713.83,27920,21.19,74564.3,5.03,-15.75,-16.23,0,*75
1534737715.06,27921,21.19,74566.0,5.03,-15.75,-16.31,0,*77
1534737716.29,27922,21.19,74570.8,5.03,-15.75,-16.23,0,*77
1534737717.52,27923,21.19,74568.8,5.03,-15.63,-16.09,0,*79
1534737718.75,27924,21.19,74566.5,5.03,-15.71,-16.09,0,*7D
1534737719.97,27925,21.13,74560.8,5.07,-15.57,-15.99,0,*76
1534737721.19,27926,21.19,74566.5,5.07,-15.57,-15.99,0,*75
1534737722.41,27927,21.19,74564.5,5.07,-15.57,-16.03,0,*74
1534737723.61,27928,21.19,74564.8,5.07,-15.67,-16.03,0,*78
1534737724.83,27929,21.19,74560.8,5.09,-15.67,-16.03,0,*77
1534737726.03,27930,21.19,74564.0,5.07,-15.71,-16.03,0,*76
1534737727.23,27931,21.19,74562.8,5.07,-15.67,-16.03,0,*70
1534737728.46,27932,21.19,74566.8,5.03,-15.63,-16.17,0,*76
1534737729.66,27933,21.19,74570.8,5.07,-15.53,-15.99,0,*75
1534737730.89,27934,21.19,74566.8,5.09,-15.29,-15.71,0,*77
1534737732.09,27935,21.19,74564.8,5.07,-15.53,-15.99,0,*73
1534737733.29,27936,21.19,74566.3,5.07,-15.53,-15.99,0,*70
1534737734.52,27937,21.19,74562.0,5.07,-15.53,-15.89,0,*70
1534737735.77,27938,21.19,74560.3,5.09,-15.53,-15.89,0,*71
1534737737.01,27939,21.19,74566.0,5.09,-15.57,-15.99,0,*75
1534737738.24,27940,21.19,74566.0,5.09,-15.53,-15.99,0,*7F
1534737739.46,27941,21.19,74562.8,5.07,-15.53,-15.89,0,*71
1534737740.69,27942,21.19,74564.5,5.07,-15.57,-15.99,0,*77
1534737741.91,27943,21.19,74566.0,5.07,-15.57,-15.99,0,*76
1534737743.16,27944,21.19,74564.8,5.09,-15.67,-16.13,0,*7D
1534737744.41,27945,21.19,74566.8,5.09,-15.67,-16.13,0,*7C
1534737745.63,27946,21.19,74566.5,5.09,-15.67,-15.99,0,*7E
1534737746.9,27947,21.19,74564.5,5.09,-15.43,-15.85,0,*74
1534737748.13,27948,21.19,74568.8,5.07,-15.57,-15.99,0,*7D
1534737749.37,27949,21.19,74564.5,5.09,-15.67,-16.13,0,*70
1534737750.62,27950,21.19,74568.5,5.09,-15.71,-16.13,0,*7F
1534737751.89,27951,21.19,74568.0,5.09,-15.57,-15.89,0,*7A
1534737753.17,27952,21.19,74564.5,5.09,-15.57,-15.89,0,*79
1534737754.42,27953,21.19,74566.8,5.09,-15.71,-16.13,0,*7C
1534737755.64,27954,21.19,74566.8,5.09,-15.71,-16.03,0,*7A
1534737756.89,27955,21.19,74564.3,5.09,-15.39,-15.75,0,*75
1534737758.17,27956,21.19,74568.8,5.09,-15.43,-15.85,0,*74
1534737759.41,27957,21.19,74570.8,5.09,-15.57,-16.03,0,*7D
1534737760.64,27958,21.19,74566.0,5.07,-15.67,-16.17,0,*7A
1534737761.89,27959,21.19,74568.3,5.09,-15.71,-16.17,0,*72
1534737763.14,27960,21.19,74566.0,5.09,-15.71,-16.17,0,*78
1534737764.37,27961,21.19,74566.8,5.09,-15.71,-16.03,0,*7C
1534737765.62,27962,21.19,74566.8,5.09,-15.71,-16.13,0,*7E
1534737766.86,27963,21.19,74562.5,5.09,-15.57,-16.03,0,*7A
1534737768.11,27964,21.19,74564.0,5.09,-15.67,-16.13,0,*7F
1534737769.36,27965,21.19,74564.3,5.09,-15.71,-16.13,0,*79
1534737770.61,27966,21.19,74564.5,5.09,-15.67,-16.13,0,*7D
1534737771.83,27967,21.19,74564.3,5.11,-15.71,-16.09,0,*79
1534737773.03,27968,21.19,74562.5,5.11,-15.63,-15.99,0,*7F
1534737774.25,27969,21.19,74564.5,5.11,-15.49,-15.85,0,*7B
1534737775.46,27970,21.19,74570.0,5.11,-15.53,-15.95,0,*79
1534737776.66,27971,21.19,74568.0,5.11,-15.63,-15.95,0,*7B
1534737777.86,27972,21.19,74570.5,5.11,-15.53,-15.95,0,*7B
1534737779.06,27973,21.19,74566.5,5.11,-15.63,-15.95,0,*79
1534737780.28,27974,21.19,74566.0,5.11,-15.49,-15.85,0,*77
1534737781.48,27975,21.19,74564.3,5.11,-15.53,-15.95,0,*7C
1534737782.71,27976,21.19,74568.3,5.11,-15.67,-16.23,0,*76
1534737783.9,27977,21.19,74564.0,5.11,-15.63,-15.99,0,*71
1534737785.1,27978,21.19,74564.3,5.11,-15.63,-15.95,0,*72
1534737786.3,27979,21.19,74566.5,5.11,-15.53,-15.99,0,*7C
1534737787.5,27980,21.19,74566.3,5.11,-15.63,-15.99,0,*79
1534737788.7,27981,21.19,74566.0,5.11,-15.63,-15.95,0,*74
1534737789.94,27982,21.19,74564.3,5.13,-15.57,-16.03,0,*7E
1534737791.17,27983,21.19,74564.0,5.11,-15.63,-16.09,0,*70
1534737792.39,27984,21.19,74566.3,5.13,-15.67,-16.03,0,*7B
1534737793.63,27985,21.19,74564.8,5.11,-15.81,-16.27,0,*76
1534737794.85,27986,21.19,74568.0,5.11,-15.71,-16.23,0,*7E
1534737796.1,27987,21.19,74566.5,5.11,-15.81,-16.23,0,*70
1534737797.32,27988,21.19,74566.3,5.11,-15.49,-15.85,0,*74
1534737798.52,27989,21.19,74566.0,5.11,-15.25,-15.67,0,*73
1534737799.74,27990,21.19,74564.3,5.13,-15.63,-15.95,0,*76
1534737800.98,27991,21.19,74564.0,5.13,-15.49,-15.89,0,*72
1534737802.2,27992,21.19,74568.8,5.13,-15.63,-16.03,0,*78
1534737803.42,27993,21.19,74568.5,5.13,-15.63,-16.03,0,*79
1534737804.64,27994,21.19,74568.5,5.13,-15.67,-16.03,0,*7A
1534737805.84,27995,21.19,74566.0,5.11,-15.63,-15.99,0,*7D
1534737807.06,27996,21.19,74566.8,5.11,-15.67,-16.09,0,*70
1534737808.28,27997,21.19,74564.3,5.13,-15.63,-16.03,0,*7D
1534737809.51,27998,21.19,74570.8,5.11,-15.63,-16.09,0,*7A
1534737810.76,27999,21.19,74566.3,5.13,-15.57,-15.95,0,*78
1534737812.01,28000,21.19,74566.5,5.13,-15.63,-16.09,0,*7F
1534737813.26,28001,21.19,74564.3,5.13,-15.75,-16.27,0,*75
1534737814.48,28002,21.19,74564.8,5.13,-15.67,-15.95,0,*7F
1534737815.73,28003,21.19,74566.8,5.13,-15.67,-16.09,0,*78
1534737816.95,28004,21.19,74566.5,5.11,-15.67,-16.17,0,*72
1534737818.19,28005,21.19,74564.8,5.13,-15.21,-15.67,0,*77
1534737819.43,28006,21.19,74564.8,5.15,-15.57,-15.89,0,*73
1534737820.69,28007,21.19,74568.8,5.13,-15.75,-16.17,0,*70
1534737821.89,28008,21.19,74568.8,5.11,-15.63,-15.95,0,*73
1534737823.16,28009,21.19,74566.0,5.13,-15.35,-15.89,0,*7E
1534737824.4,28010,21.19,74566.5,5.13,-15.57,-16.03,0,*73
1534737825.65,28011,21.19,74566.5,5.13,-15.43,-15.95,0,*7B
1534737826.88,28012,21.19,74564.8,5.11,-15.67,-16.09,0,*7A
1534737828.12,28013,21.19,74564.0,5.13,-15.67,-16.09,0,*79
1534737829.37,28014,21.19,74564.3,5.13,-15.49,-15.89,0,*79
1534737830.59,28015,21.19,74564.5,5.13,-15.63,-16.03,0,*71
1534737831.81,28016,21.19,74568.0,5.11,-15.71,-16.23,0,*71
1534737833.06,28017,21.25,74572.3,5.13,-15.67,-16.17,0,*72
1534737834.31,28018,21.19,74570.3,5.13,-15.67,-16.09,0,*72
1534737835.55,28019,21.19,74568.0,5.13,-15.43,-15.67,0,*7E
1534737836.8,28020,21.19,74564.5,5.13,-15.57,-15.95,0,*7C
1534737838.07,28021,21.19,74562.8,5.13,-15.43,-15.81,0,*7D
1534737839.32,28022,21.19,74560.8,5.13,-15.49,-15.81,0,*74
1534737840.56,28023,21.19,74564.5,5.13,-15.49,-15.89,0,*7D
1534737841.81,28024,21.19,74564.8,5.13,-15.57,-16.03,0,*74
1534737843.05,28025,21.19,74568.5,5.13,-15.57,-16.03,0,*75
1534737844.32,28026,21.19,74570.0,5.13,-15.43,-15.89,0,*72
1534737845.6,28027,21.19,74570.3,5.17,-15.39,-15.85,0,*76
1534737846.82,28028,21.19,74570.5,5.15,-15.49,-15.89,0,*70
1534737848.05,28029,21.19,74568.8,5.15,-15.57,-15.95,0,*73
1534737849.27,28030,21.25,74570.5,5.15,-15.57,-16.03,0,*77
1534737850.49,28031,21.19,74568.0,5.15,-15.57,-15.95,0,*7A
1534737851.74,28032,21.19,74568.5,5.15,-15.57,-15.89,0,*74
1534737853.0,28033,21.19,74568.3,5.15,-15.43,-15.81,0,*78
1534737854.27,28034,21.19,74568.5,5.17,-15.57,-15.85,0,*7C
1534737855.52,28035,21.25,74572.5,5.15,-15.57,-15.89,0,*73
1534737856.72,28036,21.19,74572.8,5.15,-15.29,-15.75,0,*7A
1534737857.95,28037,21.25,74574.8,5.15,-15.49,-15.89,0,*7E
1534737859.22,28038,21.25,74570.8,5.17,-15.43,-15.89,0,*79
1534737860.5,28039,21.25,74570.8,5.17,-15.43,-15.89,0,*78
1534737861.77,28040,21.19,74572.0,5.17,-15.43,-15.89,0,*76
1534737862.99,28041,21.25,74574.0,5.17,-15.63,-15.99,0,*74
1534737864.21,28042,21.25,74572.5,5.17,-15.71,-15.99,0,*74
1534737865.47,28043,21.25,74574.8,5.17,-15.53,-15.89,0,*74
1534737866.72,28044,21.19,74570.8,5.17,-15.43,-15.75,0,*71
1534737867.97,28045,21.19,74568.5,5.17,-15.53,-15.89,0,*72
1534737869.24,28046,21.19,74568.3,5.17,-15.43,-15.85,0,*7C
1534737870.49,28047,21.25,74570.8,5.17,-15.53,-15.89,0,*70
1534737871.74,28048,21.25,74574.5,5.17,-15.53,-15.89,0,*7F
1534737872.99,28049,21.19,74568.5,5.17,-15.57,-16.03,0,*7B
1534737874.21,28050,21.19,74568.3,5.17,-15.53,-15.99,0,*77
1534737875.44,28051,21.25,74572.3,5.15,-15.67,-16.09,0,*79
1534737876.66,28052,21.19,74568.0,5.17,-15.63,-15.99,0,*76
1534737877.91,28053,21.25,74574.8,5.17,-15.53,-15.89,0,*75
1534737879.16,28054,21.25,74570.3,5.17,-15.53,-15.85,0,*7E
1534737880.39,28055,21.19,74568.5,5.17,-15.53,-15.99,0,*72
1534737881.64,28056,21.25,74570.0,5.15,-15.39,-15.81,0,*76
1534737882.89,28057,21.25,74572.3,5.17,-15.43,-15.99,0,*71
1534737884.14,28058,21.25,74568.0,5.17,-15.63,-16.13,0,*7D
1534737885.36,28059,21.25,74570.0,5.17,-15.53,-15.99,0,*7E
1534737886.58,28060,21.19,74570.0,5.19,-15.57,-15.99,0,*7E
1534737887.81,28061,21.19,74570.3,5.17,-15.63,-15.99,0,*76
1534737889.05,28062,21.25,74570.5,5.17,-15.63,-16.13,0,*74
1534737890.28,28063,21.25,74574.0,5.17,-15.63,-16.03,0,*74
1534737891.5,28064,21.25,74572.5,5.17,-15.63,-16.03,0,*73
1534737892.72,28065,21.25,74570.5,5.17,-15.63,-16.03,0,*72
1534737893.97,28066,21.25,74572.3,5.17,-15.53,-15.85,0,*7F
1534737895.23,28067,21.25,74572.8,5.17,-15.39,-15.75,0,*7D
1534737896.47,28068,21.25,74574.8,5.17,-15.57,-16.03,0,*78
1534737897.7,28069,21.25,74572.0,5.19,-15.63,-16.13,0,*71
1534737898.95,28070,21.19,74570.0,5.19,-15.43,-15.85,0,*77
1534737900.18,28071,21.25,74570.3,5.19,-15.53,-15.89,0,*7B
1534737901.42,28072,21.19,74568.3,5.21,-15.49,-15.85,0,*74
1534737902.62,28073,21.25,74570.5,5.19,-15.63,-16.03,0,*7B
1534737903.85,28074,21.25,74570.5,5.19,-15.63,-16.13,0,*7D
1534737905.05,28075,21.25,74570.5,5.19,-15.63,-16.03,0,*7D
1534737906.28,28076,21.25,74570.0,5.19,-15.53,-15.89,0,*7C
1534737907.47,28077,21.25,74568.0,5.19,-15.71,-16.03,0,*7C
1534737908.67,28078,21.25,74570.0,5.19,-15.63,-16.03,0,*70
1534737909.9,28079,21.25,74576.3,5.19,-15.71,-16.13,0,*73
1534737911.15,28080,21.25,74568.5,5.19,-15.43,-15.85,0,*78
1534737912.35,28081,21.25,74570.5,5.19,-15.53,-15.99,0,*75
1534737913.62,28082,21.25,74570.5,5.17,-15.57,-15.89,0,*7D
1534737914.87,28083,21.25,74568.5,5.21,-15.57,-15.99,0,*78
1534737916.07,28084,21.25,74568.5,5.19,-15.71,-16.03,0,*70
1534737917.26,28085,21.25,74574.0,5.19,-15.63,-16.03,0,*72
1534737918.49,28086,21.25,74570.8,5.19,-15.63,-16.13,0,*70
1534737919.74,28087,21.25,74574.0,5.21,-15.53,-15.85,0,*75
1534737920.94,28088,21.25,74572.5,5.19,-15.63,-15.99,0,*7F
1534737922.14,28089,21.25,74574.8,5.19,-15.63,-15.99,0,*7E
1534737923.34,28090,21.25,74576.0,5.19,-15.63,-15.99,0,*76
1534737924.54,28091,21.25,74574.3,5.19,-15.63,-16.03,0,*77
1534737925.78,28092,21.25,74570.8,5.19,-15.57,-15.89,0,*72
1534737927.01,28093,21.25,74574.5,5.19,-15.53,-15.89,0,*77
1534737928.23,28094,21.25,74574.5,5.19,-15.57,-15.99,0,*75
1534737929.46,28095,21.25,74572.3,5.19,-15.53,-15.89,0,*71
1534737930.69,28096,21.25,74572.8,5.19,-15.53,-15.89,0,*72
1534737931.94,28097,21.25,74574.3,5.19,-15.43,-15.85,0,*7E
1534737933.19,28098,21.25,74570.5,5.21,-15.39,-15.71,0,*7C
1534737934.42,28099,21.25,74572.8,5.19,-15.39,-15.75,0,*72
1534737935.67,28100,21.25,74572.0,5.19,-15.43,-15.85,0,*71
1534737936.92,28101,21.25,74574.0,5.21,-15.35,-15.71,0,*71
1534737938.17,28102,21.25,74574.5,5.19,-15.57,-15.85,0,*76
1534737939.39,28103,21.25,74568.0,5.19,-15.53,-15.89,0,*7F
1534737940.64,28104,21.25,74572.5,5.21,-15.57,-15.95,0,*7A
1534737941.84,28105,21.25,74570.5,5.19,-15.63,-16.03,0,*7B
1534737943.06,28106,21.25,74570.8,5.21,-15.49,-15.71,0,*7D
1534737944.29,28107,21.25,74570.5,5.19,-15.39,-15.75,0,*74
1534737945.54,28108,21.25,74568.3,5.19,-15.39,-15.85,0,*74
1534737946.77,28109,21.25,74568.8,5.19,-15.71,-16.17,0,*71
1534737948.01,28110,21.25,74572.0,5.21,-15.57,-15.99,0,*73
1534737949.26,28111,21.25,74572.5,5.21,-15.49,-15.85,0,*70
1534737950.5,28112,21.25,74568.5,5.21,-15.57,-15.95,0,*7D
1534737951.77,28113,21.25,74570.0,5.21,-15.57,-15.85,0,*7D
1534737952.99,28114,21.25,74572.0,5.21,-15.49,-15.95,0,*74
1534737954.24,28115,21.25,74570.0,5.21,-15.49,-15.85,0,*74
1534737955.48,28116,21.25,74570.0,5.21,-15.57,-15.99,0,*75
1534737956.7,28117,21.25,74570.0,5.21,-15.67,-15.99,0,*77
1534737957.9,28118,21.25,74570.5,5.19,-15.71,-16.03,0,*74
1534737959.12,28119,21.25,74572.8,5.19,-15.57,-15.99,0,*71
1534737960.37,28120,21.25,74570.3,5.21,-15.67,-16.09,0,*79
1534737961.59,28121,21.25,74572.8,5.19,-15.71,-16.13,0,*7F
1534737962.84,28122,21.25,74570.5,5.21,-15.67,-16.09,0,*7B
1534737964.07,28123,21.25,74570.0,5.19,-15.63,-16.13,0,*7E
1534737965.34,28124,21.25,74570.8,5.21,-15.57,-16.09,0,*7E
1534737966.54,28125,21.25,74570.3,5.19,-15.63,-16.03,0,*79
1534737967.76,28126,21.25,74568.8,5.21,-15.53,-15.95,0,*7E
1534737968.99,28127,21.25,74570.8,5.19,-15.71,-16.13,0,*79
1534737970.26,28128,21.25,74570.5,5.21,-15.81,-16.13,0,*72
1534737971.51,28129,21.25,74572.0,5.21,-15.71,-16.09,0,*77
1534737972.73,28130,21.25,74568.8,5.21,-15.53,-15.95,0,*79
1534737973.96,28131,21.25,74570.8,5.19,-15.71,-16.13,0,*7E
1534737975.23,28132,21.25,74568.0,5.21,-15.57,-16.09,0,*79
1534737976.48,28133,21.25,74568.8,5.21,-15.67,-16.09,0,*7B
1534737977.7,28134,21.25,74574.3,5.19,-15.71,-16.13,0,*7B
1534737978.93,28135,21.25,74568.0,5.19,-15.75,-16.13,0,*7E
1534737980.18,28136,21.25,74570.3,5.21,-15.67,-16.09,0,*7E
1534737981.41,28137,21.25,74568.0,5.19,-15.71,-16.13,0,*78
1534737982.62,28138,21.25,74568.3,5.21,-15.67,-15.99,0,*7A
1534737983.87,28139,21.25,74570.0,5.21,-15.67,-16.13,0,*7A
1534737985.1,28140,21.25,74568.8,5.19,-15.53,-15.89,0,*78
1534737986.37,28141,21.25,74564.5,5.21,-15.35,-15.81,0,*7A
1534737987.57,28142,21.25,74566.8,5.19,-15.63,-16.03,0,*78
1534737988.84,28143,21.25,74570.0,5.21,-15.57,-16.09,0,*7F
1534737990.05,28144,21.25,74566.8,5.19,-15.53,-15.95,0,*71
1534737991.29,28145,21.25,74570.3,5.21,-15.67,-16.09,0,*7A
1534737992.56,28146,21.25,74566.5,5.21,-15.57,-16.13,0,*71
1534737993.8,28147,21.25,74570.5,5.21,-15.57,-15.99,0,*71
1534737995.03,28148,21.25,74572.5,5.19,-15.63,-16.13,0,*73
1534737996.26,28149,21.25,74568.5,5.19,-15.75,-16.17,0,*71
1534737997.53,28150,21.25,74570.0,5.21,-15.57,-15.85,0,*7A
1534737998.76,28151,21.25,74568.8,5.19,-15.71,-16.13,0,*78
1534738000.0,28152,21.25,74570.0,5.21,-15.67,-16.13,0,*77
1534738001.22,28153,21.25,74572.5,5.19,-15.57,-15.99,0,*7F
1534738002.49,28154,21.25,74568.0,5.21,-15.39,-15.85,0,*76
1534738003.72,28155,21.25,74570.8,5.19,-15.57,-15.99,0,*79
1534738004.96,28156,21.25,74570.8,5.21,-15.57,-15.99,0,*71
1534738006.16,28157,21.25,74570.8,5.19,-15.71,-16.03,0,*7F
1534738007.4,28158,21.25,74568.0,5.21,-15.71,-16.13,0,*7A
1534738008.68,28159,21.25,74572.8,5.21,-15.57,-16.09,0,*74
1534738009.92,28160,21.25,74570.3,5.19,-15.57,-15.89,0,*7E
1534738011.14,28161,21.25,74568.0,5.21,-15.53,-15.99,0,*71
1534738012.41,28162,21.25,74570.3,5.21,-15.81,-16.13,0,*7C
1534738013.64,28163,21.25,74570.5,5.19,-15.75,-16.17,0,*79
1534738014.87,28164,21.25,74570.3,5.19,-15.71,-16.13,0,*7E
1534738016.09,28165,21.25,74570.0,5.19,-15.57,-16.03,0,*7A
1534738017.31,28166,21.25,74568.0,5.19,-15.57,-16.03,0,*79
1534738018.54,28167,21.25,74568.5,5.21,-15.53,-15.95,0,*7B
1534738019.79,28168,21.25,74570.8,5.21,-15.67,-16.09,0,*75
1534738021.01,28169,21.25,74568.8,5.19,-15.57,-16.03,0,*76
1534738022.23,28170,21.25,74570.0,5.21,-15.53,-15.99,0,*71
1534738023.43,28171,21.25,74570.8,5.19,-15.63,-16.03,0,*78
1534738024.65,28172,21.25,74568.5,5.19,-15.71,-16.13,0,*79
1534738025.9,28173,21.25,74570.3,5.19,-15.57,-15.89,0,*7C
1534738027.15,28174,21.25,74570.0,5.21,-15.39,-15.71,0,*7F
1534738028.37,28175,21.25,74568.8,5.21,-15.49,-15.99,0,*7F
1534738029.59,28176,21.25,74572.3,5.19,-15.57,-15.99,0,*78
1534738030.79,28177,21.25,74568.3,5.19,-15.63,-16.03,0,*7E
1534738032.03,28178,21.25,74568.8,5.21,-15.49,-15.85,0,*7F
1534738033.29,28179,21.25,74566.3,5.19,-15.35,-15.85,0,*7E
1534738034.51,28180,21.25,74566.8,5.19,-15.57,-15.99,0,*71
1534738035.75,28181,21.25,74564.8,5.21,-15.49,-15.85,0,*79
1534738036.97,28182,21.25,74570.8,5.21,-15.49,-15.95,0,*7B
1534738038.2,28183,21.25,74570.3,5.19,-15.53,-15.89,0,*77
1534738039.45,28184,21.25,74572.8,5.21,-15.49,-15.85,0,*7C
1534738040.7,28185,21.31,74572.0,5.21,-15.67,-16.09,0,*76
1534738041.91,28186,21.25,74568.5,5.21,-15.67,-15.99,0,*7F
1534738043.11,28187,21.25,74570.3,5.19,-15.63,-15.99,0,*71
1534738044.36,28188,21.25,74572.0,5.21,-15.49,-15.85,0,*70
1534738045.58,28189,21.25,74568.3,5.19,-15.57,-16.03,0,*78
1534738046.82,28190,21.25,74570.8,5.21,-15.57,-15.99,0,*7B
1534738048.09,28191,21.31,74572.3,5.21,-15.39,-15.81,0,*7B
1534738049.34,28192,21.31,74570.8,5.21,-15.57,-15.95,0,*75
1534738050.59,28193,21.31,74572.8,5.21,-15.49,-15.85,0,*7A
1534738051.83,28194,21.31,74572.0,5.21,-15.57,-15.99,0,*7F
1534738053.08,28195,21.31,74572.3,5.21,-15.53,-15.85,0,*77
1534738054.33,28196,21.25,74570.0,5.21,-15.53,-15.85,0,*74
1534738055.57,28197,21.31,74572.5,5.21,-15.53,-15.85,0,*75
1534738056.77,28198,21.25,74570.3,5.19,-15.49,-15.95,0,*7B
1534738057.99,28199,21.25,74570.5,5.21,-15.53,-15.99,0,*76
1534738059.21,28200,21.31,74572.3,5.21,-15.67,-15.99,0,*72
1534738060.43,28201,21.31,74570.5,5.23,-15.57,-15.99,0,*72
1534738061.68,28202,21.31,74570.8,5.21,-15.49,-15.85,0,*71
1534738062.92,28203,21.25,74568.8,5.21,-15.49,-15.85,0,*70
1534738064.17,28204,21.31,74570.8,5.21,-15.53,-15.85,0,*7C
1534738065.4,28205,21.25,74570.0,5.21,-15.53,-15.95,0,*7C
1534738066.61,28206,21.25,74570.0,5.21,-15.53,-15.99,0,*73
1534738067.83,28207,21.25,74568.0,5.21,-15.67,-15.99,0,*75
1534738069.06,28208,21.31,74568.5,5.23,-15.49,-15.85,0,*79
1534738070.28,28209,21.25,74568.3,5.21,-15.53,-15.99,0,*7C
1534738071.52,28210,21.31,74568.8,5.21,-15.71,-16.09,0,*7E
1534738072.77,28211,21.25,74570.0,5.21,-15.57,-15.99,0,*71
1534738074.01,28212,21.31,74570.5,5.21,-15.67,-16.09,0,*7B
1534738075.23,28213,21.25,74570.3,5.21,-15.53,-15.99,0,*77
1534738076.51,28214,21.31,74570.5,5.21,-15.39,-15.81,0,*75
1534738077.76,28215,21.25,74568.0,5.21,-15.67,-16.09,0,*7C
1534738078.98,28216,21.31,74568.5,5.21,-15.67,-15.99,0,*75
1534738080.22,28217,21.31,74568.8,5.21,-15.57,-15.99,0,*77
1534738081.44,28218,21.31,74568.3,5.23,-15.49,-15.85,0,*78
1534738082.66,28219,21.31,74568.8,5.23,-15.67,-16.09,0,*72
1534738083.89,28220,21.31,74570.0,5.23,-15.71,-16.13,0,*74
1534738085.1,28221,21.31,74568.0,5.23,-15.57,-15.99,0,*70
1534738086.33,28222,21.25,74568.3,5.23,-15.71,-16.09,0,*7D
1534738087.58,28223,21.31,74574.0,5.23,-15.57,-16.09,0,*78
1534738088.82,28224,21.31,74570.0,5.21,-15.49,-15.85,0,*75
1534738090.1,28225,21.31,74568.0,5.21,-15.57,-16.09,0,*7C
1534738091.31,28226,21.31,74566.0,5.21,-15.67,-15.99,0,*76
1534738092.56,28227,21.31,74570.8,5.21,-15.57,-15.99,0,*74
1534738093.79,28228,21.31,74570.5,5.19,-15.71,-16.09,0,*7E
1534738095.03,28229,21.25,74566.5,5.21,-15.53,-15.85,0,*73
1534738096.28,28230,21.31,74568.5,5.21,-15.57,-15.95,0,*7E
1534738097.53,28231,21.31,74568.5,5.21,-15.57,-15.95,0,*7F
1534738098.77,28232,21.31,74568.5,5.21,-15.57,-15.95,0,*7C
1534738100.02,28233,21.31,74568.8,5.21,-15.67,-16.09,0,*78
1534738101.26,28234,21.31,74572.3,5.21,-15.57,-15.99,0,*76